Location: Angwan Shehu
(11.2514°N, 7.4613°E)
Time: 00:38:24
(UTC+00:00)

Tiros 1 - Pass Details

Date: 27 April 2021
Orbit: 630 x 664 km, 48.4° (Epoch: 06 May)

Event Time Altitude Azimuth Distance (km) Brightness Sun altitude
Rises 14:36:02 0° 308° (NW) 2,903 11.1 44.1°
Reaches altitude 10° 14:38:27 10° 301° (WNW) 1,997 10.6 43.5°
Maximum altitude 14:42:44 39° 232° (SW) 938 9.1 42.4°
Drops below altitude 10° 14:47:03 10° 163° (SSE) 2,008 9.6 41.4°
Sets 14:49:30 0° 155° (SSE) 2,921 10.3 40.8°
